Location: Unspecified
(35.7250°N, 0.0000°E)
Time: 18:41:17
(UTC+00:00)

Vanguard 2 - Pass Details

Date: 26 June 2019
Orbit: 553 x 2938 km, 32.9° (Epoch: 15 July)

Event Time Altitude Azimuth Distance (km) Brightness Sun altitude
Rises 09:02:12 0° 266° (W) 3,047 10.2 49.2°
Reaches altitude 10° 09:04:11 10° 264° (W) 2,286 9.7 49.6°
Maximum altitude 09:09:27 70° 181° (S) 1,067 9.2 50.7°
Drops below altitude 10° 09:18:08 10° 100° (E) 3,685 11.8 52.4°
Sets 09:22:09 0° 99° (E) 5,077 12.3 53.2°
